Notices

What's New in latest Release from April 7th, 2021:

- Updated Glossary, including Speed of Maximum Gust, and Total Hourly Precipitation

- Updated national and regional climate services offices contacts and prices information

- Addition of station inventory lists for 1981-2010, 1971-2000, and 1961-1990 Normals.

If you haven't already, please take our survey and provide feedback about our website: https://eccc.sondage-survey.ca/f/LanguageSelection.aspx?s=442ca660-fcf1-47c0-95a9-59707d6fd709

Hourly Data Report for July 23, 2003

TORONTO CITY
ONTARIO

43°40'00.000" N
79°24'00.000" W
112.50 m
6158355
71508
XTO

Download Data

Hourly Data (July 2003)
Hourly Data Report for July 23, 2003
TIME
LST
Temp Definition
°C
Dew Point Definition
°C
Rel Hum Definition
%
Precip. Amount Definition
mm

Wind Dir Definition
10's deg

Wind Spd Definition
km/h
Visibility Definition
km
Stn Press Definition
kPa
Hmdx Definition


Wind Chill Definition


Weather Definition


00:00 18.9 16.7 87   LegendMM LegendMM LegendMM 99.58     LegendNANA
01:00 18.3 16.6 90   LegendMM LegendMM LegendMM 99.56     LegendNANA
02:00 18.0 16.5 91   LegendMM LegendMM LegendMM 99.57     LegendNANA
03:00 17.7 16.3 92   LegendMM LegendMM LegendMM 99.56     LegendNANA
04:00 17.5 16.3 93   LegendMM LegendMM LegendMM 99.62     LegendNANA
05:00 17.2 16.2 94   LegendMM LegendMM LegendMM 99.65     LegendNANA
06:00 18.1 16.4 90   LegendMM LegendMM LegendMM 99.72     LegendNANA
07:00 19.0 16.7 87   LegendMM LegendMM LegendMM 99.76     LegendNANA
08:00 20.4 16.9 80   LegendMM LegendMM LegendMM 99.79 26   LegendNANA
09:00 21.7 17.5 77   LegendMM LegendMM LegendMM 99.79 27   LegendNANA
10:00 22.5 17.5 73   LegendMM LegendMM LegendMM 99.80 28   LegendNANA
11:00 23.6 17.8 70   LegendMM LegendMM LegendMM 99.77 29   LegendNANA
12:00 24.6 19.0 71   LegendMM LegendMM LegendMM 99.78 31   LegendNANA
13:00 25.2 17.3 62   LegendMM LegendMM LegendMM 99.78 31   LegendNANA
14:00 24.4 18.1 68   LegendMM LegendMM LegendMM 99.75 30   LegendNANA
15:00 24.9 17.3 63   LegendMM LegendMM LegendMM 99.74 30   LegendNANA
16:00 22.9 16.8 69   LegendMM LegendMM LegendMM 99.75 28   LegendNANA
17:00 22.8 16.6 68   LegendMM LegendMM LegendMM 99.75 28   LegendNANA
18:00 23.3 15.7 62   LegendMM LegendMM LegendMM 99.73 28   LegendNANA
19:00 22.3 15.7 66   LegendMM LegendMM LegendMM 99.78 27   LegendNANA
20:00 22.3 15.3 65   LegendMM LegendMM LegendMM 99.82 26   LegendNANA
21:00 21.7 14.4 63   LegendMM LegendMM LegendMM 99.87 25   LegendNANA
22:00 21.2 14.1 64   LegendMM LegendMM LegendMM 99.85 25   LegendNANA
23:00 20.5 14.5 68   LegendMM LegendMM LegendMM 99.83     LegendNANA

Notes on Data Quality.

Legend

  • E = Estimated
  • M = Missing
  • NA = Not Available*
  • [empty] = Indicates an unobserved value
Date modified: